Vertical_Velocity
-0 -0 -0 -1 -1 -1 -1 -2 -1 -1 -1 -1 -2 -2 -2 -1 -1 -1 -1 -0 -0 -0 -0 -0 -0 0 0 1 1 1 1 2 2 2 2 2 2 2 2 2 3 3 3 3 3 3 2 2 1 0 -1 -1 -1 -1 -0 0 0 0 1 1 1 1 1 1 1 0 0 1 1
-0 -0 -0 -0 -0 -1 -1 -1 -1 -1 -1 -1 -1 -1 -1 -1 -1 -1 -1 -0 -0 -0 -0 -1 -1 -0 -0 -0 1 1 1 2 2 2 2 2 2 2 1 2 2 3 3 3 3 2 2 1 1 0 -0 -0 0 0 1 1 1 1 1 1 1 1 1 1 1 1 1 0 0
0 0 0 -0 -0 -1 -1 -1 -1 -1 -1 -1 -1 -1 -1 -1 -1 -1 -1 -1 -0 -0 -0 -1 -1 -1 -1 -1 0 1 1 2 2 2 2 2 2 1 1 1 2 2 2 2 2 1 1 1 0 -0 0 0 1 1 1 1 2 1 1 0 1 1 1 1 1 1 1 1 0
0 0 0 -0 -0 -1 -1 -1 -1 -1 -1 -1 -1 -1 -1 -1 -1 -1 -1 -1 -0 0 -0 -0 -1 -1 -1 -1 -1 -0 1 1 2 2 2 2 1 1 1 1 2 2 1 1 1 1 0 0 0 0 1 1 2 2 1 1 1 1 0 0 1 1 1 1 1 1 1 0 0
1 0 0 0 -0 -0 -0 -0 -0 -1 -1 -1 -1 -1 -1 -1 -1 -1 -1 -0 -0 0 0 1 0 -0 -0 -0 -1 -0 0 0 1 1 1 1 0 0 0 1 2 1 1 1 1 0 0 0 1 1 1 1 2 1 1 1 0 0 0 0 1 1 1 1 1 1 0 -0 -0
1 0 0 0 0 0 -0 -0 -0 -0 -1 -1 -1 -1 -1 -1 -1 -1 -1 -1 -1 0 1 1 1 1 0 -0 -0 -0 -0 0 0 1 1 0 -0 0 1 2 2 1 1 0 0 1 1 1 1 1 1 1 1 1 1 1 0 0 0 1 1 1 1 1 1 0 -0 -1 -0
1 1 0 0 0 0 -0 -0 -0 -0 -0 0 -0 -1 -1 -1 -0 -1 -1 -1 -1 -0 0 1 1 1 1 0 -0 -0 0 0 1 1 1 1 -0 -0 0 1 1 1 1 0 0 0 1 1 1 1 1 1 0 0 0 1 0 0 0 0 1 1 1 0 1 1 0 -1 -0
1 1 0 -0 -0 -0 -0 -0 0 0 0 1 0 0 -0 0 -0 -0 -1 -1 -1 -1 -1 0 0 1 1 0 -0 -0 0 0 1 1 2 2 1 0 0 0 1 1 1 0 0 0 0 1 1 0 0 1 1 1 1 1 0 0 0 -0 -0 0 1 -0 -0 0 0 -0 -1
0 0 0 -0 -1 -1 -1 -0 0 0 1 1 1 1 0 1 0 0 -0 -1 -1 -1 -1 -0 -0 0 0 0 0 0 0 1 1 1 1 2 1 1 1 1 1 1 1 1 1 1 1 1 0 0 0 1 1 1 1 1 -0 -0 0 0 -0 0 0 0 -0 -0 -0 -0 -0
0 0 -0 -1 -1 -1 -1 -1 -0 0 1 1 1 1 1 0 0 0 -0 -1 -1 -0 -0 -0 -0 0 0 1 1 0 0 0 0 1 1 1 1 1 1 1 0 0 0 1 1 1 0 0 -0 -0 0 1 0 0 0 0 -0 -0 -0 0 0 0 0 1 -0 -1 -1 -0 -0
0 0 -0 -1 -1 -1 -1 -1 -0 0 0 -0 -0 0 0 0 0 0 0 0 0 0 0 0 0 1 1 1 1 1 1 0 0 0 0 0 0 0 0 0 0 0 0 1 1 0 0 -0 -0 -0 0 0 -0 -0 -0 0 0 0 0 1 1 1 0 0 -0 -1 -1 -1 -0
1 0 -0 -1 -1 -1 -1 -1 -0 -0 -0 -1 -1 -0 -0 -0 0 0 1 1 1 1 1 1 1 1 1 1 1 1 1 1 0 0 0 0 0 0 0 0 1 1 0 0 0 0 -0 0 0 0 0 -0 -0 -0 -0 0 1 1 1 1 1 1 1 -0 -0 -1 -1 -0 -0
1 0 0 -0 -0 -1 -1 -1 -1 -1 -1 -1 -1 -0 -0 -0 0 1 1 1 1 1 1 1 1 1 1 1 1 1 1 1 0 0 0 0 0 0 0 1 0 0 0 0 0 0 0 0 0 0 -0 -0 -0 -0 -0 0 1 1 1 1 1 1 0 -0 -1 -1 -1 -0 -0
0 0 0 0 -0 -0 -1 -1 -1 -1 -1 -1 -0 -0 -0 -0 0 1 1 1 1 1 1 1 1 1 1 1 1 1 1 1 0 0 -0 -0 0 0 0 0 -0 -0 -0 0 1 1 1 0 0 0 -0 -1 -0 -0 0 1 1 1 1 1 1 1 0 -0 -1 -1 -0 -0 -0
0 0 0 0 0 -0 -0 -0 -1 -1 -0 -0 -0 0 0 -0 0 0 0 0 1 1 0 0 0 0 0 1 1 1 1 0 0 -0 -0 -0 0 0 0 -0 -0 -0 0 1 1 1 1 0 0 0 0 -0 -0 0 0 1 1 1 1 1 1 0 0 -0 -0 -0 -0 -0 -0
-0 0 0 1 1 0 0 -0 -0 -0 -0 -0 -0 0 0 -0 0 0 0 0 0 -0 -0 -0 0 0 -0 -0 0 0 0 -0 -0 -0 -1 -0 -0 0 0 0 0 0 0 1 1 1 1 0 0 1 1 1 0 0 1 0 0 0 0 0 0 0 0 -0 -0 -0 -0 -0 -0
-0 0 1 1 1 1 1 0 0 0 0 0 0 0 -0 -0 -0 -0 -0 -0 -0 -0 -0 -0 0 0 -0 -0 -0 -0 -0 -0 -0 -0 -0 -0 0 0 1 1 1 1 1 1 1 1 0 0 1 1 1 1 1 1 0 0 0 0 0 0 0 0 -0 -0 -0 -0 -0 -0 -0
-0 0 1 1 1 1 1 0 0 0 0 1 0 -0 -0 -0 -0 -0 -1 -1 -0 -0 -0 -0 0 0 -0 -0 -0 -0 -0 -0 -0 -0 -0 -0 0 1 1 1 1 1 1 1 1 1 0 0 1 1 1 1 0 0 0 0 0 0 0 0 -0 -0 -0 -0 -0 -0 -0 -0 -1
-0 0 1 0 0 0 0 0 1 1 1 1 0 -0 -0 -1 -1 -1 -1 -1 -1 -1 -0 0 0 0 -0 -0 -0 -0 -0 -0 -0 -0 -0 -0 0 1 1 1 1 1 1 1 1 0 0 0 0 0 0 0 0 0 0 0 0 0 0 0 -0 -0 -0 -0 -0 -0 -0 -0 -1
-0 -0 -0 -0 -0 0 1 1 1 1 1 1 0 -0 -0 -1 -1 -1 -1 -1 -1 -0 0 1 1 0 0 0 0 0 -0 -0 -0 -0 0 0 0 0 0 0 0 0 0 0 0 -0 -0 -0 -0 -0 -0 -0 -0 0 0 0 1 1 0 0 -0 -0 -0 -0 -0 -0 -0 -1 -1
-1 -1 -1 -0 -0 0 1 1 1 1 1 1 0 -0 -0 -0 -0 -0 -1 -1 -0 0 0 1 1 1 0 0 0 0 -0 -0 0 0 0 0 0 -0 -0 0 -0 0 -0 -0 -1 -1 -1 -1 -1 -1 -0 -0 0 0 1 1 1 0 0 -0 -0 -0 -0 -0 -0 -0 -1 -1 -1
-1 -1 -0 -0 0 0 1 1 1 1 1 1 0 0 0 0 0 -0 -0 0 0 1 1 1 1 1 1 0 0 0 0 0 0 0 0 0 -0 -0 -0 -0 -0 -0 -0 -1 -1 -1 -2 -1 -1 -1 -0 0 1 1 1 1 0 0 -0 -0 -1 -0 -0 -0 -0 -1 -1 -1 -1
-1 -0 -0 0 0 0 1 1 1 1 1 1 1 1 1 0 0 0 0 1 1 1 1 1 1 1 0 0 0 0 0 0 -0 -0 -0 -0 -0 -0 -0 -0 -0 -0 -1 -1 -2 -2 -2 -1 -1 -0 -0 0 1 1 1 0 0 -0 -0 -1 -1 -0 -0 -1 -1 -1 -1 -1 -1
-0 -0 0 0 0 1 1 1 1 1 1 1 1 1 1 0 0 0 0 1 1 1 1 1 1 0 0 0 -0 -0 -0 -0 -0 -0 -0 -0 -0 -0 -0 -0 -0 -1 -1 -1 -2 -1 -1 -1 -1 -0 0 0 0 1 0 0 0 -0 -0 -0 -0 -1 -1 -1 -1 -1 -1 -1 -1
-0 0 0 0 1 1 1 1 1 1 1 0 0 0 0 0 0 0 0 0 1 0 0 -0 -0 -0 -0 -0 -0 -0 -0 -0 -0 -0 -0 -0 -1 -1 -1 -1 -1 -1 -1 -1 -1 -1 -1 -0 -0 0 0 1 0 0 0 0 0 0 -0 -0 -0 -1 -1 -2 -2 -1 -1 -0 -0
0 0 1 1 1 1 1 1 1 1 0 0 0 0 -0 -0 0 0 0 0 -0 -0 -1 -1 -1 -1 -0 -0 -0 -0 -0 -0 -0 -0 -0 -1 -1 -1 -1 -1 -1 -1 -1 -1 -1 -1 -0 -0 0 0 1 1 1 1 0 0 -0 0 0 -0 -1 -1 -1 -1 -1 -1 -1 -0 0
1 1 1 1 1 1 1 1 1 0 0 0 -0 -0 -0 0 0 0 0 -0 -1 -1 -1 -1 -1 -0 -0 -0 0 0 -0 -1 -1 -1 -1 -1 -1 -1 -1 -1 -1 -1 -1 -1 -1 -0 0 0 1 1 1 1 1 0 0 0 0 0 -0 -0 -1 -1 -1 -1 -1 -0 -0 -0 -0
1 1 1 1 1 1 1 1 1 0 0 -0 -0 -0 0 0 0 -0 -0 -1 -1 -1 -1 -1 -0 -0 -0 0 -0 -0 -1 -1 -1 -1 -1 -0 -0 -0 -1 -1 -1 -1 -1 -0 0 0 1 1 1 1 0 0 0 0 0 1 0 -0 -1 -1 -1 -1 -1 -0 -0 -0 0 -0 -0
1 1 1 1 1 1 1 1 0 0 0 -0 -0 0 0 -0 -0 -1 -1 -1 -1 -1 -0 -1 -1 -1 -0 -1 -1 -1 -1 -1 -1 -1 -1 -0 -0 -1 -1 -1 -1 -0 -0 0 1 1 1 1 1 0 0 0 1 1 1 1 0 -0 -1 -1 -1 -0 -0 -0 -0 -0 -0 -0 -0
1 1 1 1 0 0 0 0 0 0 -0 -0 -0 -0 -0 -1 -1 -1 -1 -1 -1 -1 -1 -1 -1 -1 -1 -1 -1 -1 -1 -1 -1 -1 -1 -1 -0 -0 -0 -0 0 0 0 1 1 1 1 1 1 1 1 1 1 1 1 0 -0 -1 -1 -0 -0 0 0 0 -0 -0 -0 -1 -1
1 1 1 0 0 0 0 0 0 0 -0 -0 -0 -0 -1 -1 -1 -1 -1 -1 -1 -1 -1 -1 -1 -1 -1 -1 -1 -1 -1 -1 -1 -1 -0 -0 0 0 0 1 1 1 1 1 1 1 1 1 1 1 1 1 1 1 0 -0 -0 -0 0 0 0 0 0 -0 -0 -0 -1 -1 -1
1 1 1 0 0 0 -0 -0 -0 -0 -0 -0 -1 -1 -1 -1 -1 -1 -1 -1 -1 -1 -1 -2 -2 -2 -1 -1 -1 -1 -1 -0 -0 -0 0 0 1 1 1 1 1 1 1 1 1 1 1 1 1 1 1 1 0 0 -0 -0 0 0 1 1 1 0 0 -0 -0 -1 -1 -1 -1
1 1 1 0 0 -0 -0 -0 -0 -0 -1 -1 -1 -1 -1 -1 -1 -1 -1 -1 -1 -1 -1 -1 -1 -1 -1 -1 -1 -0 -0 0 0 0 1 1 1 1 1 1 1 1 1 1 1 1 1 1 1 1 1 0 0 0 0 0 1 1 1 0 0 0 -0 -0 -1 -1 -1 -1 -1
1 1 0 0 0 -0 -0 -1 -1 -1 -1 -1 -1 -1 -1 -1 -1 -1 -1 -1 -1 -1 -1 -1 -1 -1 -0 -0 -0 0 0 0 0 1 1 1 1 1 1 1 1 1 1 2 1 1 1 1 1 0 0 -0 0 0 0 1 1 0 0 0 -0 -0 -0 -0 -1 -1 -1 -1 -1
1 1 0 0 -0 -0 -0 -1 -0 -0 -0 -1 -1 -1 -1 -1 -1 -1 -1 -1 -1 -0 -0 -0 -0 0 0 0 0 0 1 1 0 0 1 1 1 1 1 1 1 1 1 1 1 1 1 0 0 -0 -0 0 0 0 0 0 0 0 -0 -0 -0 -1 -1 -1 -1 -1 -1 -1 -1
1 0 0 0 -0 -0 -0 -0 -0 -0 -0 -0 -1 -1 -1 -1 -1 -0 -0 -0 0 0 0 0 0 1 1 1 1 0 1 0 0 0 0 0 0 1 1 1 1 1 1 1 1 1 0 -0 -0 -0 0 0 0 0 0 0 -0 -0 -0 -0 -0 -1 -1 -1 -1 -1 -1 -1 -1
0 0 0 0 -0 -0 -0 -0 -0 -0 -0 -1 -1 -1 -0 -0 -0 0 0 0 1 1 1 0 1 1 0 0 0 0 0 0 0 0 0 -0 0 0 1 1 1 1 1 1 0 0 0 0 0 0 0 0 0 -0 -0 -0 -0 -0 -0 -1 -1 -1 -1 -0 -1 -1 -1 -1 -0
0 0 0 0 -0 -0 -0 -0 -0 -0 -1 -1 -0 -0 0 0 0 -0 -0 -0 0 0 0 -0 0 0 -0 -0 0 0 -0 -0 0 0 0 0 0 1 1 1 0 0 0 0 0 0 0 0 0 0 1 0 0 -0 -0 -0 -1 -1 -1 -1 -1 -1 -1 -0 -0 -0 -1 -1 -0
0 0 0 0 -0 -0 -0 -1 -1 -1 -0 -0 -0 0 0 0 -0 -0 -0 -0 0 0 -0 -0 -1 -1 -1 -0 -0 -0 -0 -0 -0 0 0 0 0 0 1 1 0 0 0 0 0 0 0 1 1 1 1 0 0 -0 -0 -0 -1 -1 -1 -1 -1 -1 -1 -0 -0 -0 -0 -1 -0
0 0 0 -0 -0 -0 -0 -0 -0 -0 -0 0 0 -0 -0 -0 -0 -0 -1 -1 -0 -0 -1 -1 -1 -1 -1 -1 -0 -0 -0 -1 -0 -0 0 0 0 0 0 1 1 0 0 1 1 1 1 1 1 1 0 0 -0 -0 -0 -0 -0 -1 -1 -1 -0 -0 -0 -1 -0 0 -0 -0 -1
0 0 0 -0 -0 -0 -0 0 -0 -0 -0 0 -0 -0 -1 -1 -1 -1 -1 -1 -1 -1 -1 -1 -1 -1 -1 -1 -0 -0 -0 -1 -1 -0 -0 0 0 0 0 1 1 1 1 1 1 1 1 1 0 0 -0 -0 -1 -0 -0 -0 -0 -0 -1 -1 -0 -0 -0 -0 -0 -0 0 0 -0
Height
5774 5774 5774 5775 5775 5775 5775 5775 5775 5775 5775 5775 5775 5775 5775 5775 5775 5775 5775 5775 5775 5775 5774 5774 5774 5774 5774 5773 5773 5773 5773 5773 5773 5772 5772 5771 5771 5770 5770 5769 5769 5768 5768 5767 5766 5765 5764 5763 5763 5763 5762 5760 5759 5759 5758 5757 5756 5755 5754 5753 5753 5752 5751 5750 5749 5748 5747 5746 5745
5772 5772 5772 5772 5772 5772 5772 5772 5772 5772 5772 5772 5772 5772 5772 5772 5772 5772 5772 5772 5772 5771 5771 5771 5771 5771 5771 5770 5770 5770 5770 5770 5769 5769 5769 5768 5768 5768 5767 5766 5766 5765 5765 5764 5763 5763 5762 5761 5760 5759 5758 5758 5757 5756 5755 5754 5753 5753 5752 5751 5750 5749 5748 5747 5746 5745 5744 5743 5742
5769 5769 5769 5769 5769 5769 5769 5769 5769 5769 5769 5769 5769 5769 5769 5769 5769 5769 5769 5768 5768 5768 5768 5768 5768 5768 5768 5767 5767 5767 5767 5767 5766 5766 5766 5765 5765 5764 5764 5763 5763 5762 5762 5761 5760 5759 5758 5758 5757 5756 5756 5755 5754 5753 5753 5752 5751 5750 5749 5748 5747 5747 5746 5745 5744 5743 5742 5741 5740
5766 5766 5766 5766 5766 5767 5767 5767 5767 5767 5766 5766 5766 5766 5766 5766 5766 5766 5766 5766 5766 5765 5765 5765 5765 5765 5764 5764 5764 5764 5764 5764 5763 5763 5763 5762 5762 5761 5760 5760 5760 5759 5758 5758 5757 5756 5756 5755 5754 5753 5753 5752 5752 5751 5750 5749 5748 5747 5746 5745 5745 5744 5743 5742 5742 5741 5740 5738 5737
5763 5763 5763 5763 5763 5763 5763 5764 5764 5763 5763 5763 5763 5763 5763 5763 5763 5763 5763 5763 5763 5763 5763 5762 5762 5762 5762 5761 5761 5761 5761 5761 5760 5760 5759 5759 5758 5758 5758 5757 5757 5756 5755 5755 5754 5753 5753 5752 5752 5751 5750 5749 5749 5748 5747 5746 5745 5744 5743 5743 5742 5742 5741 5740 5739 5738 5737 5736 5735
5760 5760 5760 5760 5761 5761 5761 5761 5761 5761 5760 5760 5760 5760 5760 5760 5760 5760 5760 5760 5760 5760 5760 5759 5759 5759 5759 5758 5758 5758 5758 5758 5757 5757 5757 5756 5755 5755 5755 5754 5754 5753 5752 5752 5751 5751 5750 5749 5749 5748 5747 5747 5746 5745 5744 5743 5742 5742 5741 5740 5740 5739 5738 5738 5737 5736 5735 5733 5733
5757 5758 5758 5758 5758 5758 5758 5758 5758 5758 5758 5758 5758 5758 5757 5757 5757 5757 5757 5757 5757 5757 5757 5757 5756 5756 5756 5756 5755 5755 5755 5755 5754 5754 5753 5753 5753 5752 5751 5751 5751 5750 5749 5749 5748 5748 5747 5746 5746 5745 5744 5744 5743 5742 5741 5740 5740 5739 5738 5738 5737 5737 5736 5735 5734 5733 5732 5731 5730
5754 5754 5754 5754 5755 5755 5755 5755 5755 5755 5755 5755 5755 5755 5755 5754 5754 5754 5754 5754 5754 5754 5754 5753 5753 5753 5753 5753 5753 5752 5752 5752 5752 5751 5751 5750 5750 5749 5749 5748 5748 5747 5747 5746 5745 5745 5744 5743 5743 5742 5742 5741 5740 5739 5738 5738 5737 5736 5736 5735 5734 5734 5733 5733 5732 5731 5730 5729 5728
5751 5751 5751 5752 5752 5752 5752 5752 5752 5752 5752 5752 5752 5752 5752 5752 5752 5751 5751 5751 5751 5751 5751 5751 5750 5750 5750 5750 5750 5749 5749 5749 5748 5748 5748 5748 5747 5747 5746 5745 5745 5744 5744 5743 5743 5742 5741 5741 5740 5739 5739 5738 5738 5737 5736 5735 5734 5734 5733 5733 5732 5731 5731 5730 5729 5728 5727 5726 5725
5748 5748 5748 5749 5749 5749 5749 5749 5749 5749 5749 5749 5749 5749 5749 5749 5749 5748 5748 5748 5748 5748 5748 5748 5748 5748 5747 5747 5747 5747 5746 5746 5746 5745 5745 5744 5744 5743 5743 5743 5742 5742 5741 5740 5740 5739 5738 5738 5737 5737 5736 5735 5735 5734 5733 5732 5732 5731 5730 5730 5729 5729 5728 5728 5727 5726 5725 5724 5723
5745 5746 5746 5746 5746 5746 5746 5746 5746 5746 5746 5746 5746 5746 5746 5746 5746 5746 5746 5746 5745 5745 5745 5745 5745 5745 5744 5744 5744 5743 5743 5743 5743 5742 5742 5742 5741 5741 5740 5740 5739 5739 5738 5738 5737 5736 5736 5735 5734 5734 5733 5733 5732 5731 5730 5729 5729 5728 5728 5728 5727 5727 5726 5725 5724 5723 5723 5721 5720
5743 5743 5743 5743 5743 5743 5743 5743 5743 5743 5743 5743 5743 5743 5743 5743 5743 5743 5743 5743 5743 5743 5742 5742 5742 5742 5741 5741 5741 5741 5740 5740 5739 5739 5739 5738 5738 5738 5737 5737 5736 5736 5735 5735 5734 5733 5733 5732 5732 5731 5730 5729 5729 5728 5728 5727 5727 5726 5726 5725 5725 5724 5723 5723 5722 5721 5720 5719 5718
5740 5740 5740 5740 5740 5740 5740 5740 5740 5740 5740 5740 5740 5740 5740 5740 5740 5740 5740 5740 5740 5740 5739 5739 5739 5739 5738 5738 5738 5738 5737 5737 5737 5736 5736 5735 5735 5735 5734 5734 5733 5733 5732 5732 5731 5731 5730 5729 5729 5728 5728 5727 5726 5725 5725 5724 5724 5723 5723 5723 5722 5722 5721 5720 5719 5718 5717 5716 5715
5737 5737 5737 5737 5737 5737 5737 5737 5737 5737 5737 5737 5737 5737 5737 5737 5737 5737 5737 5737 5737 5737 5737 5736 5736 5736 5735 5735 5735 5734 5734 5734 5733 5733 5733 5733 5732 5732 5731 5731 5730 5730 5729 5729 5728 5728 5727 5727 5726 5725 5725 5724 5723 5723 5722 5722 5721 5721 5720 5720 5720 5719 5718 5718 5717 5716 5714 5713 5712
5733 5733 5733 5734 5734 5734 5734 5734 5734 5734 5734 5734 5734 5734 5734 5734 5734 5734 5734 5734 5733 5733 5733 5733 5733 5733 5732 5732 5732 5732 5731 5731 5731 5730 5730 5729 5729 5729 5728 5728 5728 5727 5727 5726 5726 5725 5724 5724 5723 5722 5722 5721 5720 5720 5719 5719 5718 5718 5718 5718 5717 5717 5716 5715 5714 5713 5712 5711 5709
5730 5730 5731 5731 5731 5731 5731 5731 5731 5732 5732 5731 5731 5731 5731 5731 5731 5731 5731 5731 5730 5730 5730 5730 5730 5730 5729 5729 5729 5729 5728 5728 5728 5727 5727 5727 5727 5726 5726 5725 5725 5724 5724 5723 5723 5722 5721 5721 5720 5719 5719 5718 5718 5717 5717 5716 5716 5715 5715 5715 5714 5714 5713 5712 5711 5710 5709 5708 5707
5727 5727 5728 5728 5728 5728 5728 5728 5728 5728 5728 5728 5728 5728 5728 5728 5728 5728 5728 5728 5728 5727 5727 5727 5727 5727 5727 5726 5726 5726 5725 5725 5725 5725 5724 5724 5724 5723 5723 5723 5722 5722 5721 5720 5720 5719 5718 5718 5717 5717 5716 5715 5715 5714 5714 5713 5713 5713 5713 5712 5712 5711 5710 5709 5708 5707 5706 5705 5704
5724 5724 5725 5725 5725 5725 5725 5726 5726 5726 5726 5726 5726 5725 5725 5725 5725 5725 5725 5725 5724 5724 5724 5724 5724 5724 5724 5723 5723 5723 5723 5723 5722 5722 5722 5721 5721 5721 5720 5720 5719 5719 5718 5718 5717 5716 5716 5715 5714 5714 5713 5713 5712 5712 5711 5711 5710 5710 5710 5709 5709 5708 5708 5707 5706 5704 5703 5702 5701
5721 5722 5722 5722 5722 5723 5723 5723 5723 5723 5723 5723 5723 5723 5723 5723 5722 5722 5722 5722 5722 5722 5722 5722 5721 5721 5721 5721 5721 5720 5720 5720 5719 5719 5719 5718 5718 5718 5717 5717 5716 5716 5715 5714 5714 5713 5713 5712 5712 5711 5710 5710 5709 5709 5708 5708 5708 5708 5707 5707 5706 5705 5705 5704 5703 5702 5701 5699 5698
5718 5718 5719 5719 5719 5719 5720 5720 5720 5720 5720 5720 5720 5720 5720 5720 5720 5719 5719 5719 5719 5719 5719 5719 5719 5718 5718 5718 5718 5718 5717 5717 5717 5716 5716 5715 5715 5714 5714 5713 5713 5713 5712 5711 5711 5710 5710 5709 5708 5708 5708 5707 5707 5706 5706 5706 5705 5705 5705 5704 5703 5703 5702 5701 5700 5699 5698 5697 5696
5715 5716 5716 5716 5716 5717 5717 5717 5717 5717 5717 5717 5717 5717 5717 5717 5717 5717 5717 5717 5717 5717 5717 5716 5716 5716 5716 5715 5715 5715 5714 5714 5714 5713 5713 5713 5712 5712 5711 5711 5710 5709 5709 5708 5708 5707 5707 5706 5706 5705 5705 5704 5704 5704 5703 5703 5703 5703 5702 5701 5701 5700 5699 5698 5697 5696 5695 5694 5693
5713 5713 5713 5713 5713 5714 5714 5714 5714 5714 5714 5714 5714 5714 5715 5715 5714 5714 5714 5714 5714 5714 5714 5714 5714 5713 5713 5713 5713 5712 5712 5711 5711 5710 5710 5709 5709 5708 5708 5708 5707 5707 5706 5705 5705 5704 5704 5703 5703 5703 5702 5702 5702 5701 5701 5701 5700 5700 5699 5699 5698 5697 5696 5695 5694 5693 5693 5691 5690
5709 5710 5710 5710 5711 5711 5711 5712 5712 5712 5712 5712 5712 5712 5712 5712 5712 5712 5712 5712 5712 5712 5712 5711 5711 5711 5710 5710 5710 5709 5709 5708 5708 5708 5707 5707 5706 5706 5705 5705 5704 5704 5703 5703 5702 5702 5701 5701 5700 5700 5700 5700 5699 5699 5698 5698 5698 5697 5697 5696 5695 5694 5694 5693 5692 5691 5690 5689 5688
5707 5707 5708 5708 5708 5708 5708 5709 5709 5709 5709 5709 5709 5709 5709 5709 5709 5709 5709 5709 5709 5709 5709 5708 5708 5708 5708 5707 5707 5706 5706 5705 5705 5705 5704 5704 5703 5703 5702 5702 5701 5701 5700 5700 5699 5699 5698 5698 5698 5698 5698 5697 5697 5696 5696 5696 5695 5695 5694 5693 5693 5692 5691 5690 5689 5688 5687 5686 5685
5704 5704 5705 5705 5706 5706 5706 5706 5706 5707 5707 5707 5707 5707 5707 5707 5707 5707 5707 5707 5706 5706 5706 5706 5705 5705 5704 5704 5704 5703 5703 5703 5702 5702 5702 5701 5700 5700 5699 5699 5698 5698 5698 5697 5697 5697 5696 5696 5695 5695 5695 5695 5694 5694 5693 5693 5693 5692 5692 5691 5690 5689 5689 5688 5687 5686 5685 5683 5682
5702 5702 5702 5703 5703 5703 5703 5704 5704 5704 5704 5704 5704 5704 5704 5704 5704 5704 5704 5704 5703 5703 5703 5703 5702 5702 5702 5701 5701 5701 5700 5700 5700 5699 5699 5698 5698 5697 5697 5697 5696 5695 5695 5695 5694 5694 5694 5693 5693 5693 5693 5692 5692 5692 5691 5691 5690 5689 5689 5688 5688 5687 5686 5685 5684 5683 5682 5681 5680
5699 5700 5700 5700 5701 5701 5701 5701 5701 5702 5702 5702 5702 5702 5702 5702 5701 5701 5701 5701 5701 5700 5700 5700 5699 5699 5699 5699 5698 5698 5698 5697 5697 5697 5696 5696 5695 5695 5694 5694 5693 5693 5693 5692 5692 5692 5691 5691 5691 5691 5690 5690 5689 5689 5689 5688 5688 5687 5687 5686 5685 5684 5684 5683 5682 5681 5680 5678 5677
5697 5697 5698 5698 5698 5698 5698 5699 5699 5699 5699 5699 5699 5699 5699 5699 5699 5698 5698 5698 5698 5698 5698 5697 5697 5697 5696 5696 5696 5695 5695 5695 5694 5694 5693 5693 5693 5692 5692 5691 5691 5691 5690 5690 5690 5689 5689 5689 5688 5688 5688 5688 5687 5687 5686 5686 5685 5685 5684 5683 5683 5682 5681 5680 5679 5678 5677 5676 5674
5695 5695 5695 5696 5696 5696 5696 5696 5697 5697 5697 5697 5697 5696 5696 5696 5696 5696 5696 5696 5695 5695 5695 5695 5694 5694 5694 5693 5693 5693 5693 5692 5692 5691 5691 5691 5690 5690 5689 5689 5689 5688 5688 5688 5688 5687 5687 5687 5686 5686 5686 5685 5685 5684 5684 5683 5683 5682 5682 5681 5680 5679 5678 5678 5677 5676 5674 5673 5672
5692 5693 5693 5693 5693 5694 5694 5694 5694 5694 5694 5694 5694 5694 5694 5694 5693 5693 5693 5693 5693 5693 5693 5692 5692 5692 5691 5691 5691 5690 5690 5690 5689 5689 5688 5688 5688 5688 5687 5687 5687 5686 5686 5686 5685 5685 5685 5684 5684 5684 5683 5683 5683 5682 5682 5681 5681 5680 5679 5678 5678 5677 5676 5675 5674 5673 5672 5670 5669
5690 5690 5691 5691 5691 5692 5692 5692 5692 5692 5692 5692 5692 5692 5692 5691 5691 5691 5691 5691 5691 5690 5690 5690 5689 5689 5689 5688 5688 5688 5688 5687 5687 5687 5687 5686 5686 5686 5685 5685 5684 5684 5684 5684 5683 5683 5683 5682 5682 5682 5681 5681 5680 5680 5679 5679 5678 5678 5677 5676 5675 5674 5673 5673 5671 5670 5669 5668 5666
5688 5688 5688 5689 5689 5689 5689 5689 5689 5689 5689 5689 5689 5689 5689 5689 5689 5689 5689 5688 5688 5688 5688 5687 5687 5687 5687 5686 5686 5686 5685 5685 5685 5685 5684 5684 5684 5683 5683 5683 5683 5682 5682 5682 5681 5681 5680 5680 5680 5679 5679 5678 5678 5678 5677 5676 5676 5675 5675 5674 5673 5672 5671 5670 5668 5668 5666 5665 5664
5686 5686 5686 5686 5687 5687 5687 5687 5687 5687 5687 5687 5687 5687 5687 5687 5687 5687 5686 5686 5686 5686 5685 5685 5685 5685 5684 5684 5684 5684 5683 5683 5683 5683 5682 5682 5682 5681 5681 5681 5680 5680 5680 5679 5679 5679 5678 5678 5678 5677 5677 5676 5676 5675 5675 5674 5673 5673 5672 5671 5670 5669 5668 5667 5666 5665 5664 5663 5661
5683 5684 5684 5684 5684 5685 5685 5685 5685 5685 5685 5685 5685 5685 5685 5685 5685 5684 5684 5684 5684 5683 5683 5683 5683 5683 5682 5682 5682 5682 5681 5681 5681 5681 5680 5680 5680 5679 5679 5678 5678 5678 5678 5677 5677 5677 5676 5676 5675 5675 5674 5674 5673 5673 5673 5672 5671 5671 5670 5669 5668 5667 5666 5665 5663 5662 5661 5660 5659
5681 5682 5682 5682 5682 5683 5683 5683 5683 5683 5683 5683 5683 5683 5683 5683 5683 5683 5682 5682 5682 5682 5681 5681 5681 5680 5680 5680 5680 5680 5679 5679 5679 5678 5678 5678 5678 5677 5677 5676 5676 5676 5676 5675 5675 5674 5674 5673 5673 5673 5672 5672 5671 5671 5670 5669 5669 5668 5667 5666 5665 5664 5663 5662 5661 5660 5659 5658 5657
5679 5680 5680 5680 5680 5680 5681 5681 5681 5681 5681 5681 5681 5681 5681 5681 5681 5680 5680 5680 5680 5679 5679 5679 5679 5678 5678 5678 5678 5678 5677 5677 5677 5676 5676 5676 5675 5675 5675 5674 5674 5674 5673 5673 5673 5672 5672 5671 5671 5670 5670 5669 5669 5668 5668 5667 5666 5666 5665 5664 5663 5662 5661 5660 5658 5657 5656 5655 5654
5677 5678 5678 5678 5678 5678 5679 5679 5679 5679 5679 5679 5679 5679 5679 5679 5679 5678 5678 5678 5678 5678 5678 5677 5677 5677 5677 5676 5676 5676 5675 5675 5675 5674 5674 5674 5673 5673 5673 5673 5672 5672 5671 5671 5670 5670 5669 5669 5669 5668 5668 5667 5667 5666 5665 5665 5664 5663 5662 5661 5660 5659 5658 5657 5656 5655 5654 5653 5652
5675 5676 5676 5676 5676 5677 5677 5677 5677 5678 5678 5678 5678 5677 5677 5677 5677 5677 5676 5676 5676 5676 5676 5675 5675 5675 5674 5674 5674 5673 5673 5673 5673 5672 5672 5672 5672 5671 5671 5670 5670 5669 5669 5669 5668 5668 5668 5667 5667 5666 5666 5665 5664 5664 5663 5662 5662 5661 5660 5659 5658 5657 5656 5655 5654 5653 5652 5651 5650
5673 5673 5674 5674 5674 5675 5675 5675 5675 5676 5676 5676 5675 5675 5675 5675 5675 5675 5674 5674 5674 5674 5674 5673 5673 5673 5673 5672 5672 5672 5671 5671 5671 5670 5670 5670 5669 5669 5669 5668 5668 5668 5667 5667 5666 5666 5665 5665 5664 5664 5663 5663 5662 5661 5661 5660 5659 5658 5658 5657 5656 5654 5653 5653 5651 5650 5649 5648 5647
5672 5672 5672 5673 5673 5673 5673 5673 5673 5673 5673 5673 5673 5673 5673 5673 5673 5673 5673 5672 5672 5672 5672 5671 5671 5671 5671 5670 5670 5670 5669 5669 5669 5668 5668 5668 5668 5667 5667 5666 5666 5666 5665 5665 5664 5664 5663 5663 5663 5662 5661 5660 5660 5659 5658 5658 5657 5656 5655 5654 5653 5652 5651 5650 5649 5648 5647 5646 5645
5670 5670 5670 5671 5671 5671 5671 5672 5672 5672 5671 5671 5671 5671 5671 5671 5671 5671 5670 5670 5670 5670 5670 5669 5669 5669 5668 5668 5668 5668 5668 5667 5667 5667 5666 5666 5666 5665 5665 5664 5664 5664 5663 5663 5663 5662 5661 5661 5660 5660 5659 5658 5658 5657 5656 5655 5654 5653 5653 5652 5651 5650 5649 5648 5647 5646 5645 5643 5643